Time,TemperatureF,DewpointF,PressureIn,WindDirection,WindDirectionDegrees,WindSpeedMPH,WindSpeedGustMPH,Humidity,HourlyPrecipIn,Conditions,Clouds,dailyrainin,SoftwareType,DateUTC
2013-03-23 00:05:00,27.8,24.7,29.99,NE,48,0.0,0.0,88,0.00,,---,0.00,VWS V14.00,2013-03-23 06:05:00,
2013-03-23 00:12:00,27.8,24.7,29.99,North,0,0.0,0.0,88,0.00,,---,0.00,VWS V14.00,2013-03-23 06:12:00,
2013-03-23 00:18:00,27.8,24.7,29.99,NE,48,0.0,0.0,88,0.00,,---,0.00,VWS V14.00,2013-03-23 06:18:00,
2013-03-23 00:23:00,27.7,24.6,29.99,NE,48,0.0,0.0,88,0.00,,---,0.00,VWS V14.00,2013-03-23 06:23:00,
2013-03-23 00:29:00,27.7,24.6,30.00,NE,48,0.0,0.0,88,0.00,,---,0.00,VWS V14.00,2013-03-23 06:29:00,
2013-03-23 00:35:00,27.6,24.5,30.00,NE,48,0.0,0.0,88,0.00,,---,0.00,VWS V14.00,2013-03-23 06:35:00,
2013-03-23 00:40:00,27.6,24.5,29.99,NE,48,0.0,0.0,88,0.00,,---,0.00,VWS V14.00,2013-03-23 06:40:00,
2013-03-23 00:47:00,27.6,24.5,29.98,NE,48,0.0,0.0,88,0.00,,---,0.00,VWS V14.00,2013-03-23 06:47:00,
2013-03-23 00:53:00,27.5,24.4,29.98,NE,48,0.0,0.0,88,0.00,,---,0.00,VWS V14.00,2013-03-23 06:53:00,
2013-03-23 00:58:00,27.3,24.2,29.99,NNE,17,2.0,6.0,88,0.00,,---,0.00,VWS V14.00,2013-03-23 06:58:00,
2013-03-23 01:03:00,26.7,23.6,29.99,North,11,4.0,5.0,88,0.00,,---,0.00,VWS V14.00,2013-03-23 07:03:00,
2013-03-23 01:09:00,26.0,22.7,30.00,NNE,14,2.0,5.0,87,0.00,,---,0.00,VWS V14.00,2013-03-23 07:09:00,
2013-03-23 01:14:00,25.6,22.5,30.00,North,360,5.0,5.0,88,0.00,,---,0.00,VWS V14.00,2013-03-23 07:14:00,
2013-03-23 01:19:00,25.3,22.2,30.00,North,9,0.0,1.0,88,0.00,,---,0.00,VWS V14.00,2013-03-23 07:19:00,
2013-03-23 01:25:00,25.1,22.0,30.00,North,9,0.0,2.0,88,0.00,,---,0.00,VWS V14.00,2013-03-23 07:25:00,
2013-03-23 01:30:00,24.9,21.9,29.99,North,9,1.0,3.0,88,0.00,,---,0.00,VWS V14.00,2013-03-23 07:30:00,
2013-03-23 01:35:00,24.8,21.8,29.99,NNE,22,5.0,6.0,88,0.00,,---,0.00,VWS V14.00,2013-03-23 07:35:00,
2013-03-23 01:41:00,24.7,21.7,29.99,NNE,13,0.0,5.0,88,0.00,,---,0.00,VWS V14.00,2013-03-23 07:41:00,
2013-03-23 01:46:00,24.5,21.5,29.99,NNE,24,1.0,5.0,88,0.00,,---,0.00,VWS V14.00,2013-03-23 07:46:00,
2013-03-23 01:52:00,24.4,21.4,30.00,NNE,21,3.0,5.0,88,0.00,,---,0.00,VWS V14.00,2013-03-23 07:52:00,
2013-03-23 01:57:00,24.2,21.2,30.00,North,355,4.0,5.0,88,0.00,,---,0.00,VWS V14.00,2013-03-23 07:57:00,
2013-03-23 02:02:00,24.0,21.0,30.00,North,5,0.0,1.0,88,0.00,,---,0.00,VWS V14.00,2013-03-23 08:02:00,
2013-03-23 02:08:00,23.9,20.9,30.02,North,349,4.0,5.0,88,0.00,,---,0.00,VWS V14.00,2013-03-23 08:08:00,
2013-03-23 02:13:00,23.8,20.8,30.02,NNE,18,2.0,4.0,88,0.00,,---,0.00,VWS V14.00,2013-03-23 08:13:00,
2013-03-23 02:18:00,23.8,20.8,30.02,ENE,72,0.0,1.0,88,0.00,,---,0.00,VWS V14.00,2013-03-23 08:18:00,
2013-03-23 02:23:00,23.7,20.7,30.02,North,360,0.0,5.0,88,0.00,,---,0.00,VWS V14.00,2013-03-23 08:23:00,
2013-03-23 02:28:00,23.6,20.6,30.02,NNE,24,3.0,6.0,88,0.00,,---,0.00,VWS V14.00,2013-03-23 08:28:00,
2013-03-23 02:33:00,23.5,20.5,30.01,NNE,26,4.0,4.0,88,0.00,,---,0.00,VWS V14.00,2013-03-23 08:33:00,
2013-03-23 02:38:00,23.4,20.4,30.02,North,9,0.0,3.0,88,0.00,,---,0.00,VWS V14.00,2013-03-23 08:38:00,
2013-03-23 02:43:00,23.4,20.4,30.01,NE,36,4.0,5.0,88,0.00,,---,0.00,VWS V14.00,2013-03-23 08:43:00,
2013-03-23 02:48:00,23.4,20.4,30.02,NE,36,0.0,3.0,88,0.00,,---,0.00,VWS V14.00,2013-03-23 08:48:00,
2013-03-23 02:53:00,23.4,20.4,30.02,NE,41,0.0,0.0,88,0.00,,---,0.00,VWS V14.00,2013-03-23 08:53:00,
2013-03-23 02:58:00,23.3,20.3,30.03,NNE,16,5.0,5.0,88,0.00,,---,0.00,VWS V14.00,2013-03-23 08:58:00,
2013-03-23 03:04:00,23.3,20.3,30.03,NNE,17,2.0,2.0,88,0.00,,---,0.00,VWS V14.00,2013-03-23 09:04:00,
2013-03-23 03:09:00,23.3,20.3,30.06,NNE,19,2.0,4.0,88,0.00,,---,0.00,VWS V14.00,2013-03-23 09:09:00,
2013-03-23 03:14:00,23.3,20.3,30.05,NNE,20,0.0,3.0,88,0.00,,---,0.00,VWS V14.00,2013-03-23 09:14:00,
2013-03-23 03:19:00,23.3,20.3,30.05,NNE,20,0.0,1.0,88,0.00,,---,0.00,VWS V14.00,2013-03-23 09:19:00,
2013-03-23 03:24:00,23.4,20.4,30.05,NNE,19,2.0,3.0,88,0.00,,---,0.00,VWS V14.00,2013-03-23 09:24:00,
2013-03-23 03:29:00,23.4,20.4,30.04,North,360,4.0,5.0,88,0.00,,---,0.00,VWS V14.00,2013-03-23 09:29:00,
2013-03-23 03:34:00,23.4,20.4,30.05,North,5,3.0,4.0,88,0.00,,---,0.00,VWS V14.00,2013-03-23 09:34:00,
2013-03-23 03:39:00,23.4,20.4,30.05,NNE,30,0.0,4.0,88,0.00,,---,0.00,VWS V14.00,2013-03-23 09:39:00,
2013-03-23 03:44:00,23.4,20.4,30.05,North,355,1.0,4.0,88,0.00,,---,0.00,VWS V14.00,2013-03-23 09:44:00,
2013-03-23 03:49:00,23.3,20.3,30.04,North,355,2.0,3.0,88,0.00,,---,0.00,VWS V14.00,2013-03-23 09:49:00,
2013-03-23 03:54:00,23.2,20.2,30.05,NNE,17,2.0,4.0,88,0.00,,---,0.00,VWS V14.00,2013-03-23 09:54:00,
2013-03-23 03:59:00,23.1,20.1,30.05,NE,56,4.0,5.0,88,0.00,,---,0.00,VWS V14.00,2013-03-23 09:59:00,
2013-03-23 04:04:00,23.0,20.0,30.06,NE,40,2.0,4.0,88,0.00,,---,0.00,VWS V14.00,2013-03-23 10:04:00,
2013-03-23 04:09:00,22.9,19.9,30.06,North,11,3.0,3.0,88,0.00,,---,0.00,VWS V14.00,2013-03-23 10:09:00,
2013-03-23 04:14:00,22.8,19.8,30.05,North,11,3.0,5.0,88,0.00,,---,0.00,VWS V14.00,2013-03-23 10:14:00,
2013-03-23 04:19:00,22.7,19.7,30.05,NNE,13,2.0,4.0,88,0.00,,---,0.00,VWS V14.00,2013-03-23 10:19:00,
2013-03-23 04:24:00,22.6,19.6,30.05,NE,51,0.0,3.0,88,0.00,,---,0.00,VWS V14.00,2013-03-23 10:24:00,
2013-03-23 04:29:00,22.6,19.6,30.06,NE,51,0.0,1.0,88,0.00,,---,0.00,VWS V14.00,2013-03-23 10:29:00,
2013-03-23 04:34:00,22.6,19.6,30.06,NNE,13,1.0,4.0,88,0.00,,---,0.00,VWS V14.00,2013-03-23 10:34:00,
2013-03-23 04:39:00,22.6,19.6,30.06,North,360,3.0,3.0,88,0.00,,---,0.00,VWS V14.00,2013-03-23 10:39:00,
2013-03-23 04:44:00,22.6,19.6,30.06,North,360,0.0,2.0,88,0.00,,---,0.00,VWS V14.00,2013-03-23 10:44:00,
2013-03-23 04:49:00,22.6,19.6,30.06,North,355,4.0,4.0,88,0.00,,---,0.00,VWS V14.00,2013-03-23 10:49:00,
2013-03-23 04:54:00,22.6,19.6,30.06,NNE,19,0.0,2.0,88,0.00,,---,0.00,VWS V14.00,2013-03-23 10:54:00,
2013-03-23 04:59:00,22.6,19.6,30.06,North,360,0.0,3.0,88,0.00,,---,0.00,VWS V14.00,2013-03-23 10:59:00,
2013-03-23 05:04:00,22.6,19.6,30.05,NNE,29,0.0,2.0,88,0.00,,---,0.00,VWS V14.00,2013-03-23 11:04:00,
2013-03-23 05:10:00,22.6,19.6,30.10,NNE,29,2.0,3.0,88,0.00,,---,0.00,VWS V14.00,2013-03-23 11:10:00,
2013-03-23 05:15:00,22.7,19.7,30.11,North,360,0.0,2.0,88,0.00,,---,0.00,VWS V14.00,2013-03-23 11:15:00,
2013-03-23 05:20:00,22.7,19.7,30.11,NNE,26,1.0,3.0,88,0.00,,---,0.00,VWS V14.00,2013-03-23 11:20:00,
2013-03-23 05:25:00,22.8,19.8,30.11,NNE,24,1.0,3.0,88,0.00,,---,0.00,VWS V14.00,2013-03-23 11:25:00,
2013-03-23 05:30:00,22.8,19.8,30.11,North,5,5.0,5.0,88,0.00,,---,0.00,VWS V14.00,2013-03-23 11:30:00,
2013-03-23 05:35:00,22.8,19.8,30.11,NNE,17,2.0,4.0,88,0.00,,---,0.00,VWS V14.00,2013-03-23 11:35:00,
2013-03-23 05:41:00,22.8,19.8,30.11,North,360,4.0,5.0,88,0.00,,---,0.00,VWS V14.00,2013-03-23 11:41:00,
2013-03-23 05:46:00,22.7,19.7,30.11,North,360,0.0,5.0,88,0.00,,---,0.00,VWS V14.00,2013-03-23 11:46:00,
2013-03-23 05:51:00,22.7,19.7,30.11,NNE,16,4.0,4.0,88,0.00,,---,0.00,VWS V14.00,2013-03-23 11:51:00,
2013-03-23 05:56:00,22.7,19.7,30.11,NNW,346,0.0,3.0,88,0.00,,---,0.00,VWS V14.00,2013-03-23 11:56:00,
2013-03-23 06:01:00,22.6,19.6,30.11,North,9,4.0,5.0,88,0.00,,---,0.00,VWS V14.00,2013-03-23 12:01:00,
2013-03-23 06:06:00,22.6,19.6,30.13,NNE,28,1.0,4.0,88,0.00,,---,0.00,VWS V14.00,2013-03-23 12:06:00,
2013-03-23 06:12:00,22.5,19.5,30.13,North,11,0.0,6.0,88,0.00,,---,0.00,VWS V14.00,2013-03-23 12:12:00,
2013-03-23 06:18:00,22.4,19.4,30.13,North,360,3.0,6.0,88,0.00,,---,0.00,VWS V14.00,2013-03-23 12:18:00,
2013-03-23 06:23:00,22.3,19.3,30.13,North,11,3.0,6.0,88,0.00,,---,0.00,VWS V14.00,2013-03-23 12:23:00,
2013-03-23 06:28:00,22.3,19.3,30.12,North,360,2.0,6.0,88,0.00,,---,0.00,VWS V14.00,2013-03-23 12:28:00,
2013-03-23 06:33:00,22.2,19.2,30.12,North,5,3.0,3.0,88,0.00,,---,0.00,VWS V14.00,2013-03-23 12:33:00,
2013-03-23 06:38:00,22.2,19.2,30.12,North,355,1.0,3.0,88,0.00,,---,0.00,VWS V14.00,2013-03-23 12:38:00,
2013-03-23 06:43:00,22.1,19.1,30.12,NNE,29,4.0,5.0,88,0.00,,---,0.00,VWS V14.00,2013-03-23 12:43:00,
2013-03-23 06:48:00,22.1,19.1,30.13,NE,37,3.0,4.0,88,0.00,,---,0.00,VWS V14.00,2013-03-23 12:48:00,
2013-03-23 06:53:00,22.1,19.1,30.13,North,350,0.0,3.0,88,0.00,,---,0.00,VWS V14.00,2013-03-23 12:53:00,
2013-03-23 06:58:00,22.1,19.1,30.13,NNW,348,3.0,6.0,88,0.00,,---,0.00,VWS V14.00,2013-03-23 12:58:00,
2013-03-23 07:03:00,22.1,19.1,30.13,NNE,32,3.0,5.0,88,0.00,,---,0.00,VWS V14.00,2013-03-23 13:03:00,
2013-03-23 07:08:00,22.1,19.4,30.15,NNE,17,3.0,7.0,89,0.00,,---,0.00,VWS V14.00,2013-03-23 13:08:00,
2013-03-23 07:13:00,22.1,19.4,30.16,NNE,32,2.0,3.0,89,0.00,,---,0.00,VWS V14.00,2013-03-23 13:13:00,
2013-03-23 07:18:00,22.0,19.0,30.16,NNE,14,5.0,5.0,88,0.00,,---,0.00,VWS V14.00,2013-03-23 13:18:00,
2013-03-23 07:23:00,21.7,18.7,30.16,North,349,4.0,9.0,88,0.00,,---,0.00,VWS V14.00,2013-03-23 13:23:00,
2013-03-23 07:28:00,21.3,18.3,30.17,NE,40,2.0,6.0,88,0.00,,---,0.00,VWS V14.00,2013-03-23 13:28:00,
2013-03-23 07:33:00,21.1,18.1,30.16,ENE,58,3.0,3.0,88,0.00,,---,0.00,VWS V14.00,2013-03-23 13:33:00,
2013-03-23 07:38:00,21.0,18.0,30.17,North,355,3.0,7.0,88,0.00,,---,0.00,VWS V14.00,2013-03-23 13:38:00,
2013-03-23 07:44:00,20.9,17.9,30.16,North,11,6.0,6.0,88,0.00,,---,0.00,VWS V14.00,2013-03-23 13:44:00,
2013-03-23 07:49:00,20.8,17.8,30.17,NNE,28,4.0,10.0,88,0.00,,---,0.00,VWS V14.00,2013-03-23 13:49:00,
2013-03-23 07:54:00,20.7,17.7,30.17,NNE,13,6.0,12.0,88,0.00,,---,0.00,VWS V14.00,2013-03-23 13:54:00,
2013-03-23 08:00:00,20.6,17.6,30.17,North,5,5.0,6.0,88,0.00,,---,0.00,VWS V14.00,2013-03-23 14:00:00,
2013-03-23 08:05:00,20.4,17.4,30.20,NE,55,7.0,7.0,88,0.00,,---,0.00,VWS V14.00,2013-03-23 14:05:00,
2013-03-23 08:10:00,20.1,17.1,30.19,North,360,3.0,5.0,88,0.00,,---,0.00,VWS V14.00,2013-03-23 14:10:00,
2013-03-23 08:15:00,19.7,16.7,30.20,NNE,21,9.0,11.0,88,0.00,,---,0.00,VWS V14.00,2013-03-23 14:15:00,
2013-03-23 08:20:00,19.5,16.5,30.21,North,10,4.0,11.0,88,0.00,,---,0.00,VWS V14.00,2013-03-23 14:20:00,
2013-03-23 08:25:00,19.3,16.3,30.22,North,350,7.0,10.0,88,0.00,,---,0.00,VWS V14.00,2013-03-23 14:25:00,
2013-03-23 08:31:00,18.9,15.9,30.22,NE,53,3.0,11.0,88,0.00,,---,0.00,VWS V14.00,2013-03-23 14:31:00,
2013-03-23 08:36:00,18.8,15.8,30.23,NNE,18,3.0,7.0,88,0.00,,---,0.00,VWS V14.00,2013-03-23 14:36:00,
2013-03-23 08:42:00,18.7,15.7,30.23,ENE,61,4.0,7.0,88,0.00,,---,0.00,VWS V14.00,2013-03-23 14:42:00,
2013-03-23 08:47:00,18.6,15.6,30.23,NE,46,6.0,7.0,88,0.00,,---,0.00,VWS V14.00,2013-03-23 14:47:00,
2013-03-23 08:52:00,18.6,15.6,30.23,North,9,5.0,9.0,88,0.00,,---,0.00,VWS V14.00,2013-03-23 14:52:00,
2013-03-23 08:57:00,18.6,15.6,30.24,NNE,33,3.0,7.0,88,0.00,,---,0.00,VWS V14.00,2013-03-23 14:57:00,
2013-03-23 09:02:00,18.6,15.6,30.24,NE,40,7.0,9.0,88,0.00,,---,0.00,VWS V14.00,2013-03-23 15:02:00,
2013-03-23 09:08:00,18.3,15.4,30.26,West,266,10.0,10.0,88,0.00,,---,0.00,VWS V14.00,2013-03-23 15:08:00,
2013-03-23 09:13:00,18.1,15.1,30.26,NW,313,9.0,10.0,88,0.00,,---,0.00,VWS V14.00,2013-03-23 15:13:00,
2013-03-23 09:18:00,18.0,15.1,30.26,NE,37,5.0,9.0,88,0.00,,---,0.00,VWS V14.00,2013-03-23 15:18:00,
2013-03-23 09:23:00,17.9,14.9,30.26,NNE,24,4.0,9.0,88,0.00,,---,0.00,VWS V14.00,2013-03-23 15:23:00,
2013-03-23 09:28:00,17.8,14.9,30.26,North,355,3.0,11.0,88,0.00,,---,0.00,VWS V14.00,2013-03-23 15:28:00,
2013-03-23 09:33:00,17.8,14.9,30.27,NNW,341,3.0,10.0,88,0.00,,---,0.00,VWS V14.00,2013-03-23 15:33:00,
2013-03-23 09:38:00,17.9,14.9,30.27,North,360,5.0,7.0,88,0.00,,---,0.00,VWS V14.00,2013-03-23 15:38:00,
2013-03-23 09:43:00,17.9,14.9,30.27,NNE,27,4.0,10.0,88,0.00,,---,0.00,VWS V14.00,2013-03-23 15:43:00,
2013-03-23 09:48:00,17.9,14.9,30.28,NNE,22,4.0,12.0,88,0.00,,---,0.00,VWS V14.00,2013-03-23 15:48:00,
2013-03-23 09:54:00,17.8,14.9,30.28,NNE,28,2.0,11.0,88,0.00,,---,0.00,VWS V14.00,2013-03-23 15:54:00,
2013-03-23 09:59:00,17.7,14.8,30.29,WNW,297,10.0,14.0,88,0.00,,---,0.00,VWS V14.00,2013-03-23 15:59:00,
2013-03-23 10:04:00,17.6,14.7,30.29,NE,36,7.0,11.0,88,0.00,,---,0.00,VWS V14.00,2013-03-23 16:04:00,
2013-03-23 10:09:00,17.5,14.6,30.29,NE,35,7.0,8.0,88,0.00,,---,0.00,VWS V14.00,2013-03-23 16:09:00,
2013-03-23 10:14:00,17.5,14.6,30.29,NE,53,6.0,10.0,88,0.00,,---,0.00,VWS V14.00,2013-03-23 16:14:00,
2013-03-23 10:19:00,17.6,14.7,30.30,NE,37,3.0,9.0,88,0.00,,---,0.00,VWS V14.00,2013-03-23 16:19:00,
2013-03-23 10:24:00,17.7,14.8,30.30,NE,36,11.0,11.0,88,0.00,,---,0.00,VWS V14.00,2013-03-23 16:24:00,
2013-03-23 10:30:00,17.7,14.8,30.31,NNE,29,5.0,10.0,88,0.00,,---,0.00,VWS V14.00,2013-03-23 16:30:00,
2013-03-23 10:35:00,17.7,14.8,30.31,NNE,30,2.0,5.0,88,0.00,,---,0.00,VWS V14.00,2013-03-23 16:35:00,
2013-03-23 10:40:00,17.9,14.9,30.31,NNE,30,4.0,6.0,88,0.00,,---,0.00,VWS V14.00,2013-03-23 16:40:00,
2013-03-23 10:45:00,18.1,15.1,30.32,North,355,3.0,10.0,88,0.00,,---,0.00,VWS V14.00,2013-03-23 16:45:00,
2013-03-23 10:50:00,18.2,15.2,30.31,NNW,338,2.0,5.0,88,0.00,,---,0.00,VWS V14.00,2013-03-23 16:50:00,
2013-03-23 10:55:00,18.3,15.4,30.32,North,10,3.0,5.0,88,0.00,,---,0.00,VWS V14.00,2013-03-23 16:55:00,
2013-03-23 11:00:00,18.4,15.4,30.32,NE,34,4.0,9.0,88,0.00,,---,0.00,VWS V14.00,2013-03-23 17:00:00,
2013-03-23 11:05:00,18.5,15.6,30.32,North,11,1.0,6.0,88,0.00,,---,0.00,VWS V14.00,2013-03-23 17:05:00,
2013-03-23 11:10:00,18.5,15.6,30.32,NE,35,2.0,5.0,88,0.00,,---,0.00,VWS V14.00,2013-03-23 17:10:00,
2013-03-23 11:15:00,18.4,15.4,30.32,NNE,17,10.0,12.0,88,0.00,,---,0.00,VWS V14.00,2013-03-23 17:15:00,
2013-03-23 11:20:00,18.3,15.4,30.32,NNE,23,5.0,9.0,88,0.00,,---,0.00,VWS V14.00,2013-03-23 17:20:00,
2013-03-23 11:25:00,18.1,15.1,30.33,NNE,12,3.0,7.0,88,0.00,,---,0.00,VWS V14.00,2013-03-23 17:25:00,
2013-03-23 11:30:00,18.3,15.4,30.33,NE,37,5.0,6.0,88,0.00,,---,0.00,VWS V14.00,2013-03-23 17:30:00,
2013-03-23 11:35:00,18.4,15.4,30.33,NNE,25,4.0,5.0,88,0.00,,---,0.00,VWS V14.00,2013-03-23 17:35:00,
2013-03-23 11:42:00,18.4,15.2,30.33,NNE,30,10.0,11.0,87,0.00,,---,0.00,VWS V14.00,2013-03-23 17:42:00,
2013-03-23 11:48:00,18.3,15.1,30.33,North,360,5.0,11.0,87,0.00,,---,0.00,VWS V14.00,2013-03-23 17:48:00,
2013-03-23 11:53:00,18.1,14.9,30.34,NNE,32,3.0,11.0,87,0.00,,---,0.00,VWS V14.00,2013-03-23 17:53:00,
2013-03-23 11:58:00,18.0,14.8,30.34,NNE,25,9.0,10.0,87,0.00,,---,0.00,VWS V14.00,2013-03-23 17:58:00,
2013-03-23 12:03:00,18.1,14.9,30.35,NNE,15,5.0,9.0,87,0.00,,---,0.00,VWS V14.00,2013-03-23 18:03:00,
2013-03-23 12:09:00,18.0,14.8,30.36,NE,42,2.0,9.0,87,0.00,,---,0.00,VWS V14.00,2013-03-23 18:09:00,
2013-03-23 12:15:00,18.1,14.9,30.36,NE,48,2.0,7.0,87,0.00,,---,0.00,VWS V14.00,2013-03-23 18:15:00,
2013-03-23 12:21:00,18.3,15.1,30.36,NNW,348,6.0,11.0,87,0.00,,---,0.00,VWS V14.00,2013-03-23 18:21:00,
2013-03-23 12:26:00,18.3,15.1,30.36,WNW,292,5.0,10.0,87,0.00,,---,0.00,VWS V14.00,2013-03-23 18:26:00,
2013-03-23 12:32:00,18.2,15.0,30.36,North,9,4.0,5.0,87,0.00,,---,0.00,VWS V14.00,2013-03-23 18:32:00,
2013-03-23 12:37:00,18.3,15.1,30.36,NNE,29,6.0,10.0,87,0.00,,---,0.00,VWS V14.00,2013-03-23 18:37:00,
2013-03-23 12:42:00,18.3,15.1,30.37,NNE,18,2.0,6.0,87,0.00,,---,0.00,VWS V14.00,2013-03-23 18:42:00,
2013-03-23 12:48:00,18.5,15.0,30.35,NNE,32,4.0,6.0,86,0.00,,---,0.00,VWS V14.00,2013-03-23 18:48:00,
2013-03-23 12:53:00,18.5,15.0,30.35,NNW,337,3.0,7.0,86,0.00,,---,0.00,VWS V14.00,2013-03-23 18:53:00,
2013-03-23 12:58:00,18.7,15.5,30.35,North,360,4.0,6.0,87,0.00,,---,0.00,VWS V14.00,2013-03-23 18:58:00,
2013-03-23 13:03:00,18.9,15.4,30.35,NNE,30,5.0,7.0,86,0.00,,---,0.00,VWS V14.00,2013-03-23 19:03:00,
2013-03-23 13:08:00,19.1,15.6,30.38,NE,44,4.0,9.0,86,0.00,,---,0.00,VWS V14.00,2013-03-23 19:08:00,
2013-03-23 13:14:00,19.4,15.9,30.38,North,355,5.0,7.0,86,0.00,,---,0.00,VWS V14.00,2013-03-23 19:14:00,
2013-03-23 13:19:00,19.5,16.0,30.38,North,355,3.0,9.0,86,0.00,,---,0.00,VWS V14.00,2013-03-23 19:19:00,
2013-03-23 13:24:00,19.4,15.9,30.38,North,360,3.0,7.0,86,0.00,,---,0.00,VWS V14.00,2013-03-23 19:24:00,
2013-03-23 13:29:00,19.6,16.1,30.37,NNE,18,4.0,7.0,86,0.00,,---,0.00,VWS V14.00,2013-03-23 19:29:00,
2013-03-23 13:34:00,19.7,16.2,30.37,North,355,2.0,7.0,86,0.00,,---,0.00,VWS V14.00,2013-03-23 19:34:00,
2013-03-23 13:39:00,19.7,16.2,30.37,NNW,336,8.0,8.0,86,0.00,,---,0.00,VWS V14.00,2013-03-23 19:39:00,
2013-03-23 13:45:00,19.8,16.3,30.37,NNE,22,4.0,4.0,86,0.00,,---,0.00,VWS V14.00,2013-03-23 19:45:00,
2013-03-23 13:50:00,20.2,16.7,30.37,NNE,24,1.0,7.0,86,0.00,,---,0.00,VWS V14.00,2013-03-23 19:50:00,
2013-03-23 13:55:00,20.3,16.5,30.37,North,9,5.0,7.0,85,0.00,,---,0.00,VWS V14.00,2013-03-23 19:55:00,
2013-03-23 14:00:00,20.2,16.4,30.37,NNE,13,5.0,6.0,85,0.00,,---,0.00,VWS V14.00,2013-03-23 20:00:00,
2013-03-23 14:05:00,20.3,16.5,30.38,NNE,13,5.0,6.0,85,0.00,,---,0.00,VWS V14.00,2013-03-23 20:05:00,
2013-03-23 14:10:00,20.3,16.5,30.38,ENE,67,3.0,12.0,85,0.00,,---,0.00,VWS V14.00,2013-03-23 20:10:00,
2013-03-23 14:15:00,20.2,16.4,30.38,North,360,6.0,10.0,85,0.00,,---,0.00,VWS V14.00,2013-03-23 20:15:00,
2013-03-23 14:20:00,20.1,18.1,30.39,NE,52,3.0,9.0,92,0.00,,---,0.00,VWS V14.00,2013-03-23 20:20:00,
2013-03-23 14:25:00,20.3,16.5,30.38,NNE,25,4.0,9.0,85,0.00,,---,0.00,VWS V14.00,2013-03-23 20:25:00,
2013-03-23 14:30:00,20.2,16.1,30.39,NNE,28,2.0,4.0,84,0.00,,---,0.00,VWS V14.00,2013-03-23 20:30:00,
2013-03-23 14:35:00,20.6,16.8,30.37,NE,44,3.0,4.0,85,0.00,,---,0.00,VWS V14.00,2013-03-23 20:35:00,
2013-03-23 14:40:00,20.7,16.6,30.37,NNE,26,2.0,9.0,84,0.00,,---,0.00,VWS V14.00,2013-03-23 20:40:00,
2013-03-23 14:45:00,20.6,16.5,30.37,NNE,26,2.0,7.0,84,0.00,,---,0.00,VWS V14.00,2013-03-23 20:45:00,
2013-03-23 14:50:00,20.7,16.6,30.37,ENE,69,3.0,7.0,84,0.00,,---,0.00,VWS V14.00,2013-03-23 20:50:00,
2013-03-23 14:55:00,20.8,16.7,30.37,ENE,75,2.0,4.0,84,0.00,,---,0.00,VWS V14.00,2013-03-23 20:55:00,
2013-03-23 15:00:00,20.8,16.7,30.37,NE,46,11.0,11.0,84,0.00,,---,0.00,VWS V14.00,2013-03-23 21:00:00,
2013-03-23 15:05:00,20.6,16.5,30.37,NE,36,3.0,8.0,84,0.00,,---,0.00,VWS V14.00,2013-03-23 21:05:00,
2013-03-23 15:10:00,20.6,16.5,30.38,ENE,69,1.0,5.0,84,0.00,,---,0.00,VWS V14.00,2013-03-23 21:10:00,
2013-03-23 15:15:00,20.6,16.5,30.38,NNE,15,4.0,6.0,84,0.00,,---,0.00,VWS V14.00,2013-03-23 21:15:00,
2013-03-23 15:20:00,20.4,16.1,30.38,NE,34,3.0,5.0,83,0.00,,---,0.00,VWS V14.00,2013-03-23 21:20:00,
2013-03-23 15:25:00,20.4,16.1,30.39,NNE,26,3.0,7.0,83,0.00,,---,0.00,VWS V14.00,2013-03-23 21:25:00,
2013-03-23 15:30:00,20.4,16.4,30.39,NNE,16,4.0,6.0,84,0.00,,---,0.00,VWS V14.00,2013-03-23 21:30:00,
2013-03-23 15:35:00,20.5,16.4,30.38,North,360,3.0,6.0,84,0.00,,---,0.00,VWS V14.00,2013-03-23 21:35:00,
2013-03-23 15:40:00,20.4,16.1,30.38,NNE,30,1.0,6.0,83,0.00,,---,0.00,VWS V14.00,2013-03-23 21:40:00,
2013-03-23 15:45:00,20.4,16.1,30.39,North,355,3.0,6.0,83,0.00,,---,0.00,VWS V14.00,2013-03-23 21:45:00,
2013-03-23 15:50:00,20.4,16.1,30.40,North,9,3.0,7.0,83,0.00,,---,0.00,VWS V14.00,2013-03-23 21:50:00,
2013-03-23 15:55:00,20.5,16.4,30.39,NE,51,5.0,5.0,84,0.00,,---,0.00,VWS V14.00,2013-03-23 21:55:00,
2013-03-23 16:00:00,20.5,16.2,30.38,NNW,342,3.0,7.0,83,0.00,,---,0.00,VWS V14.00,2013-03-23 22:00:00,
2013-03-23 16:05:00,20.6,16.3,30.39,NNE,17,1.0,2.0,83,0.00,,---,0.00,VWS V14.00,2013-03-23 22:05:00,
2013-03-23 16:10:00,20.4,16.1,30.40,NE,46,1.0,7.0,83,0.00,,---,0.00,VWS V14.00,2013-03-23 22:10:00,
2013-03-23 16:15:00,20.5,16.2,30.39,NNE,18,3.0,5.0,83,0.00,,---,0.00,VWS V14.00,2013-03-23 22:15:00,
2013-03-23 16:20:00,20.7,16.4,30.38,NNE,19,3.0,6.0,83,0.00,,---,0.00,VWS V14.00,2013-03-23 22:20:00,
2013-03-23 16:25:00,20.7,16.4,30.39,NNE,24,2.0,3.0,83,0.00,,---,0.00,VWS V14.00,2013-03-23 22:25:00,
2013-03-23 16:30:00,20.8,16.5,30.39,NNE,18,2.0,6.0,83,0.00,,---,0.00,VWS V14.00,2013-03-23 22:30:00,
2013-03-23 16:35:00,20.9,16.6,30.39,NNW,344,1.0,4.0,83,0.00,,---,0.00,VWS V14.00,2013-03-23 22:35:00,
2013-03-23 16:40:00,21.1,16.8,30.39,NNE,12,0.0,5.0,83,0.00,,---,0.00,VWS V14.00,2013-03-23 22:40:00,
2013-03-23 16:45:00,21.2,16.6,30.39,NNE,26,4.0,5.0,82,0.00,,---,0.00,VWS V14.00,2013-03-23 22:45:00,
2013-03-23 16:50:00,21.1,16.5,30.39,NE,44,2.0,4.0,82,0.00,,---,0.00,VWS V14.00,2013-03-23 22:50:00,
2013-03-23 16:55:00,21.0,16.4,30.39,NNE,32,2.0,4.0,82,0.00,,---,0.00,VWS V14.00,2013-03-23 22:55:00,
2013-03-23 17:01:00,21.1,16.5,30.39,ENE,60,2.0,5.0,82,0.00,,---,0.00,VWS V14.00,2013-03-23 23:01:00,
2013-03-23 17:07:00,21.0,16.4,30.39,NE,36,1.0,4.0,82,0.00,,---,0.00,VWS V14.00,2013-03-23 23:07:00,
2013-03-23 17:12:00,21.1,16.5,30.39,NW,324,0.0,3.0,82,0.00,,---,0.00,VWS V14.00,2013-03-23 23:12:00,
2013-03-23 17:17:00,21.2,16.6,30.39,NNW,348,3.0,3.0,82,0.00,,---,0.00,VWS V14.00,2013-03-23 23:17:00,
2013-03-23 17:22:00,21.3,16.7,30.39,North,10,1.0,4.0,82,0.00,,---,0.00,VWS V14.00,2013-03-23 23:22:00,
2013-03-23 17:28:00,21.2,16.6,30.40,NNE,20,2.0,4.0,82,0.00,,---,0.00,VWS V14.00,2013-03-23 23:28:00,
2013-03-23 17:33:00,21.3,16.7,30.40,NW,311,1.0,4.0,82,0.00,,---,0.00,VWS V14.00,2013-03-23 23:33:00,
2013-03-23 17:39:00,21.3,16.7,30.40,NNE,21,2.0,3.0,82,0.00,,---,0.00,VWS V14.00,2013-03-23 23:39:00,
2013-03-23 17:44:00,21.2,16.6,30.40,North,5,1.0,5.0,82,0.00,,---,0.00,VWS V14.00,2013-03-23 23:44:00,
2013-03-23 17:49:00,21.1,16.5,30.40,North,9,0.0,3.0,82,0.00,,---,0.00,VWS V14.00,2013-03-23 23:49:00,
2013-03-23 17:54:00,21.1,16.5,30.41,North,9,3.0,3.0,82,0.00,,---,0.00,VWS V14.00,2013-03-23 23:54:00,
2013-03-23 17:59:00,21.0,16.4,30.41,NNE,29,2.0,3.0,82,0.00,,---,0.00,VWS V14.00,2013-03-23 23:59:00,
2013-03-23 18:04:00,20.9,16.3,30.42,NE,43,1.0,3.0,82,0.00,,---,0.00,VWS V14.00,2013-03-24 00:04:00,
2013-03-23 18:09:00,20.8,16.2,30.42,North,9,1.0,4.0,82,0.00,,---,0.00,VWS V14.00,2013-03-24 00:09:00,
2013-03-23 18:14:00,20.6,16.0,30.43,NNE,26,3.0,4.0,82,0.00,,---,0.00,VWS V14.00,2013-03-24 00:14:00,
2013-03-23 18:19:00,20.4,15.8,30.43,NNE,29,3.0,4.0,82,0.00,,---,0.00,VWS V14.00,2013-03-24 00:19:00,
2013-03-23 18:24:00,20.4,15.8,30.43,NNE,29,4.0,4.0,82,0.00,,---,0.00,VWS V14.00,2013-03-24 00:24:00,
2013-03-23 18:29:00,20.3,15.7,30.42,NNE,30,1.0,4.0,82,0.00,,---,0.00,VWS V14.00,2013-03-24 00:29:00,
2013-03-23 18:34:00,20.2,15.6,30.43,North,5,0.0,4.0,82,0.00,,---,0.00,VWS V14.00,2013-03-24 00:34:00,
2013-03-23 18:39:00,20.2,15.6,30.43,North,360,0.0,2.0,82,0.00,,---,0.00,VWS V14.00,2013-03-24 00:39:00,
2013-03-23 18:44:00,20.1,15.5,30.43,North,5,3.0,4.0,82,0.00,,---,0.00,VWS V14.00,2013-03-24 00:44:00,
2013-03-23 18:49:00,20.0,15.4,30.43,NNE,17,1.0,2.0,82,0.00,,---,0.00,VWS V14.00,2013-03-24 00:49:00,
2013-03-23 18:54:00,19.9,15.3,30.44,North,360,0.0,1.0,82,0.00,,---,0.00,VWS V14.00,2013-03-24 00:54:00,
2013-03-23 19:00:00,19.7,15.1,30.44,North,9,0.0,3.0,82,0.00,,---,0.00,VWS V14.00,2013-03-24 01:00:00,
2013-03-23 19:05:00,19.7,15.1,30.45,North,9,0.0,1.0,82,0.00,,---,0.00,VWS V14.00,2013-03-24 01:05:00,
2013-03-23 19:10:00,19.7,15.1,30.45,NNE,14,2.0,4.0,82,0.00,,---,0.00,VWS V14.00,2013-03-24 01:10:00,
2013-03-23 19:15:00,19.5,14.9,30.45,NNE,15,0.0,0.0,82,0.00,,---,0.00,VWS V14.00,2013-03-24 01:15:00,
2013-03-23 19:20:00,19.5,14.9,30.46,NNE,14,0.0,2.0,82,0.00,,---,0.00,VWS V14.00,2013-03-24 01:20:00,
2013-03-23 19:25:00,19.3,14.7,30.46,North,355,0.0,3.0,82,0.00,,---,0.00,VWS V14.00,2013-03-24 01:25:00,
2013-03-23 19:30:00,19.1,14.5,30.46,North,355,0.0,0.0,82,0.00,,---,0.00,VWS V14.00,2013-03-24 01:30:00,
2013-03-23 19:35:00,19.0,14.4,30.46,North,355,0.0,0.0,82,0.00,,---,0.00,VWS V14.00,2013-03-24 01:35:00,
2013-03-23 19:40:00,18.9,14.3,30.46,North,355,0.0,0.0,82,0.00,,---,0.00,VWS V14.00,2013-03-24 01:40:00,
2013-03-23 19:45:00,18.8,14.2,30.46,North,355,0.0,0.0,82,0.00,,---,0.00,VWS V14.00,2013-03-24 01:45:00,
2013-03-23 19:50:00,18.8,14.2,30.46,North,355,0.0,0.0,82,0.00,,---,0.00,VWS V14.00,2013-03-24 01:50:00,
2013-03-23 19:55:00,18.7,14.1,30.46,North,355,0.0,0.0,82,0.00,,---,0.00,VWS V14.00,2013-03-24 01:55:00,
2013-03-23 20:00:00,18.6,14.0,30.47,North,355,0.0,0.0,82,0.00,,---,0.00,VWS V14.00,2013-03-24 02:00:00,
2013-03-23 20:05:00,18.4,13.8,30.50,North,355,0.0,0.0,82,0.00,,---,0.00,VWS V14.00,2013-03-24 02:05:00,
2013-03-23 20:10:00,18.3,13.7,30.50,North,355,0.0,0.0,82,0.00,,---,0.00,VWS V14.00,2013-03-24 02:10:00,
2013-03-23 20:15:00,18.2,13.6,30.50,North,355,0.0,0.0,82,0.00,,---,0.00,VWS V14.00,2013-03-24 02:15:00,
2013-03-23 20:20:00,18.1,13.5,30.50,North,355,0.0,0.0,82,0.00,,---,0.00,VWS V14.00,2013-03-24 02:20:00,
2013-03-23 20:25:00,18.0,13.4,30.50,North,355,0.0,0.0,82,0.00,,---,0.00,VWS V14.00,2013-03-24 02:25:00,
2013-03-23 20:30:00,17.7,13.1,30.50,North,355,0.0,2.0,82,0.00,,---,0.00,VWS V14.00,2013-03-24 02:30:00,
2013-03-23 20:35:00,17.7,13.1,30.50,North,355,2.0,3.0,82,0.00,,---,0.00,VWS V14.00,2013-03-24 02:35:00,
2013-03-23 20:40:00,17.7,13.1,30.50,SW,219,0.0,1.0,82,0.00,,---,0.00,VWS V14.00,2013-03-24 02:40:00,
2013-03-23 20:45:00,17.6,13.1,30.50,SW,218,0.0,1.0,82,0.00,,---,0.00,VWS V14.00,2013-03-24 02:45:00,
2013-03-23 20:50:00,17.6,13.1,30.50,SW,218,1.0,4.0,82,0.00,,---,0.00,VWS V14.00,2013-03-24 02:50:00,
2013-03-23 20:55:00,17.7,13.1,30.51,SW,218,0.0,2.0,82,0.00,,---,0.00,VWS V14.00,2013-03-24 02:55:00,
2013-03-23 21:00:00,17.7,13.1,30.51,SW,219,2.0,3.0,82,0.00,,---,0.00,VWS V14.00,2013-03-24 03:00:00,
2013-03-23 21:05:00,17.7,13.1,30.51,SW,219,0.0,0.0,82,0.00,,---,0.00,VWS V14.00,2013-03-24 03:05:00,
2013-03-23 21:10:00,17.6,13.1,30.51,SW,218,0.0,3.0,82,0.00,,---,0.00,VWS V14.00,2013-03-24 03:10:00,
2013-03-23 21:15:00,17.7,13.1,30.51,SW,219,0.0,0.0,82,0.00,,---,0.00,VWS V14.00,2013-03-24 03:15:00,
2013-03-23 21:20:00,17.8,13.2,30.51,SSW,205,0.0,3.0,82,0.00,,---,0.00,VWS V14.00,2013-03-24 03:20:00,
2013-03-23 21:25:00,17.7,13.1,30.51,SSW,205,0.0,0.0,82,0.00,,---,0.00,VWS V14.00,2013-03-24 03:25:00,
2013-03-23 21:30:00,17.7,13.1,30.52,SW,218,1.0,4.0,82,0.00,,---,0.00,VWS V14.00,2013-03-24 03:30:00,
2013-03-23 21:35:00,17.6,13.1,30.52,SW,218,2.0,2.0,82,0.00,,---,0.00,VWS V14.00,2013-03-24 03:35:00,
2013-03-23 21:40:00,17.6,13.1,30.52,SW,219,0.0,0.0,82,0.00,,---,0.00,VWS V14.00,2013-03-24 03:40:00,
2013-03-23 21:45:00,17.5,12.9,30.52,SW,218,1.0,3.0,82,0.00,,---,0.00,VWS V14.00,2013-03-24 03:45:00,
2013-03-23 21:50:00,17.4,12.9,30.53,SW,219,0.0,2.0,82,0.00,,---,0.00,VWS V14.00,2013-03-24 03:50:00,
2013-03-23 21:55:00,17.3,12.8,30.53,SW,219,0.0,1.0,82,0.00,,---,0.00,VWS V14.00,2013-03-24 03:55:00,
2013-03-23 22:00:00,17.2,12.7,30.53,SSW,200,0.0,0.0,82,0.00,,---,0.00,VWS V14.00,2013-03-24 04:00:00,
2013-03-23 22:02:00,17.2,12.7,30.53,SSW,199,0.0,0.0,82,0.00,,---,0.00,VWS V14.00,2013-03-24 04:02:00,
2013-03-23 22:04:00,17.1,12.3,30.52,SSW,200,1.0,3.0,81,0.00,,---,0.00,VWS V14.00,2013-03-24 04:04:00,
2013-03-23 22:05:00,17.1,12.3,30.52,SSW,199,1.0,2.0,81,0.00,,---,0.00,VWS V14.00,2013-03-24 04:05:00,
2013-03-23 22:10:00,17.0,12.5,30.52,SSW,199,0.0,2.0,82,0.00,,---,0.00,VWS V14.00,2013-03-24 04:10:00,
2013-03-23 22:15:00,17.0,12.5,30.52,SSW,199,0.0,0.0,82,0.00,,---,0.00,VWS V14.00,2013-03-24 04:15:00,
2013-03-23 22:20:00,16.9,12.1,30.52,SSW,199,0.0,0.0,81,0.00,,---,0.00,VWS V14.00,2013-03-24 04:20:00,
2013-03-23 22:25:00,16.7,11.9,30.52,SSW,199,0.0,0.0,81,0.00,,---,0.00,VWS V14.00,2013-03-24 04:25:00,
2013-03-23 22:30:00,16.6,11.8,30.52,SSW,199,0.0,0.0,81,0.00,,---,0.00,VWS V14.00,2013-03-24 04:30:00,
2013-03-23 22:35:00,16.4,11.6,30.53,SSW,199,0.0,3.0,81,0.00,,---,0.00,VWS V14.00,2013-03-24 04:35:00,
2013-03-23 22:40:00,16.3,11.5,30.53,SSW,199,0.0,0.0,81,0.00,,---,0.00,VWS V14.00,2013-03-24 04:40:00,
2013-03-23 22:45:00,16.2,11.4,30.53,SSW,199,0.0,0.0,81,0.00,,---,0.00,VWS V14.00,2013-03-24 04:45:00,
2013-03-23 22:50:00,16.1,11.3,30.53,SSW,199,0.0,0.0,81,0.00,,---,0.00,VWS V14.00,2013-03-24 04:50:00,
2013-03-23 22:55:00,15.9,11.1,30.53,SSW,199,0.0,1.0,81,0.00,,---,0.00,VWS V14.00,2013-03-24 04:55:00,
2013-03-23 23:00:00,15.7,10.9,30.53,SSW,199,0.0,1.0,81,0.00,,---,0.00,VWS V14.00,2013-03-24 05:00:00,
2013-03-23 23:05:00,15.5,10.7,30.53,SSW,199,0.0,0.0,81,0.00,,---,0.00,VWS V14.00,2013-03-24 05:05:00,
2013-03-23 23:11:00,15.4,10.6,30.54,SSW,199,0.0,0.0,81,0.00,,---,0.00,VWS V14.00,2013-03-24 05:11:00,
2013-03-23 23:17:00,15.2,10.4,30.54,SSW,199,0.0,0.0,81,0.00,,---,0.00,VWS V14.00,2013-03-24 05:17:00,
2013-03-23 23:22:00,15.2,10.4,30.54,SSW,199,0.0,2.0,81,0.00,,---,0.00,VWS V14.00,2013-03-24 05:22:00,
2013-03-23 23:28:00,15.3,10.5,30.54,South,190,1.0,1.0,81,0.00,,---,0.00,VWS V14.00,2013-03-24 05:28:00,
2013-03-23 23:33:00,15.3,10.5,30.54,South,187,4.0,4.0,81,0.00,,---,0.00,VWS V14.00,2013-03-24 05:33:00,
2013-03-23 23:38:00,15.4,10.6,30.54,South,187,2.0,2.0,81,0.00,,---,0.00,VWS V14.00,2013-03-24 05:38:00,
2013-03-23 23:43:00,15.4,10.6,30.53,South,186,1.0,4.0,81,0.00,,---,0.00,VWS V14.00,2013-03-24 05:43:00,
2013-03-23 23:49:00,15.4,10.6,30.53,South,173,2.0,3.0,81,0.00,,---,0.00,VWS V14.00,2013-03-24 05:49:00,
2013-03-23 23:54:00,15.5,10.7,30.52,South,175,2.0,2.0,81,0.00,,---,0.00,VWS V14.00,2013-03-24 05:54:00,
2013-03-23 23:59:00,15.4,10.6,30.53,South,175,0.0,0.0,81,0.00,,---,0.00,VWS V14.00,2013-03-24 05:59:00,